Year,Month,Day,Hour,Minute,Value (Times are PST for temperature in C)
2013,03,23,11,50,4.90
2013,03,23,11,51,5.00
2013,03,23,11,52,5.10
2013,03,23,11,53,5.20
2013,03,23,11,54,5.20
2013,03,23,11,55,5.30
2013,03,23,11,56,5.30
2013,03,23,11,57,5.20
2013,03,23,11,58,5.10
2013,03,23,11,59,5.10
2013,03,23,12,00,5.10
2013,03,23,12,01,5.10
2013,03,23,12,02,5.20
2013,03,23,12,03,5.20
2013,03,23,12,04,5.30
2013,03,23,12,05,5.40
2013,03,23,12,06,5.50
2013,03,23,12,07,5.50
2013,03,23,12,08,5.50
2013,03,23,12,09,5.50
2013,03,23,12,10,5.60
2013,03,23,12,11,5.50
2013,03,23,12,12,5.50
2013,03,23,12,13,5.60
2013,03,23,12,14,5.60
2013,03,23,12,15,5.70
2013,03,23,12,16,5.70
2013,03,23,12,17,5.70
2013,03,23,12,18,5.70
2013,03,23,12,19,5.60
2013,03,23,12,20,5.50
2013,03,23,12,21,5.60
2013,03,23,12,22,5.50
2013,03,23,12,23,5.50
2013,03,23,12,24,5.40
2013,03,23,12,25,5.40
2013,03,23,12,26,5.50
2013,03,23,12,27,5.50
2013,03,23,12,28,5.60
2013,03,23,12,29,5.60
2013,03,23,12,30,5.70
2013,03,23,12,31,5.70
2013,03,23,12,32,5.70
2013,03,23,12,33,5.70
2013,03,23,12,34,5.70
2013,03,23,12,35,5.90
2013,03,23,12,36,5.90
2013,03,23,12,37,6.00
2013,03,23,12,38,6.00
2013,03,23,12,39,5.90
2013,03,23,12,40,5.90
2013,03,23,12,41,5.90
2013,03,23,12,42,6.00
2013,03,23,12,43,5.90
2013,03,23,12,44,6.00
2013,03,23,12,45,6.00
2013,03,23,12,46,6.00
2013,03,23,12,47,6.00
2013,03,23,12,48,6.10
2013,03,23,12,49,6.20
2013,03,23,12,50,6.20
2013,03,23,12,51,6.10
2013,03,23,12,52,6.10
2013,03,23,12,53,6.00
2013,03,23,12,54,6.00
2013,03,23,12,55,6.00
2013,03,23,12,56,6.00
2013,03,23,12,57,6.20
2013,03,23,12,58,6.20
2013,03,23,12,59,6.10
2013,03,23,13,00,5.90
2013,03,23,13,01,5.80
2013,03,23,13,02,5.70
2013,03,23,13,03,5.70
2013,03,23,13,04,5.70
2013,03,23,13,05,5.60
2013,03,23,13,06,5.50
2013,03,23,13,07,5.50
2013,03,23,13,08,5.50
2013,03,23,13,09,5.50
2013,03,23,13,10,5.50
2013,03,23,13,11,5.50
2013,03,23,13,12,5.60
2013,03,23,13,13,5.60
2013,03,23,13,14,5.60
2013,03,23,13,15,5.50
2013,03,23,13,16,5.50
2013,03,23,13,17,5.50
2013,03,23,13,18,5.50
2013,03,23,13,19,5.50
2013,03,23,13,20,5.50
2013,03,23,13,21,5.50
2013,03,23,13,22,5.50
2013,03,23,13,23,5.50
2013,03,23,13,24,5.50
2013,03,23,13,25,5.60
2013,03,23,13,26,5.60
2013,03,23,13,27,5.60
2013,03,23,13,28,5.60
2013,03,23,13,29,5.50
2013,03,23,13,30,5.50
2013,03,23,13,31,5.50
2013,03,23,13,32,5.60
2013,03,23,13,33,5.70
2013,03,23,13,34,5.80
2013,03,23,13,35,6.00
2013,03,23,13,36,6.10
2013,03,23,13,37,6.10
2013,03,23,13,38,6.00
2013,03,23,13,39,5.90
2013,03,23,13,40,5.90
2013,03,23,13,41,5.90
2013,03,23,13,42,5.80
2013,03,23,13,43,5.80
2013,03,23,13,44,5.70
2013,03,23,13,45,5.80
2013,03,23,13,46,5.90
2013,03,23,13,47,5.90
2013,03,23,13,48,5.90
2013,03,23,13,49,6.00
2013,03,23,13,50,6.10
2013,03,23,13,51,6.20
2013,03,23,13,52,6.30
2013,03,23,13,53,6.40
2013,03,23,13,54,6.30
2013,03,23,13,55,6.30
2013,03,23,13,56,6.30
2013,03,23,13,57,6.30
2013,03,23,13,58,6.20
2013,03,23,13,59,6.20
2013,03,23,14,00,6.20
2013,03,23,14,01,6.20
2013,03,23,14,02,6.10
2013,03,23,14,03,6.10
2013,03,23,14,04,6.10
2013,03,23,14,05,6.10
2013,03,23,14,06,6.10
2013,03,23,14,07,6.10
2013,03,23,14,08,6.10
2013,03,23,14,09,6.20
2013,03,23,14,10,6.20
2013,03,23,14,11,6.20
2013,03,23,14,12,6.10
2013,03,23,14,13,6.10
2013,03,23,14,14,6.10
2013,03,23,14,15,6.00
2013,03,23,14,16,5.90
2013,03,23,14,17,5.90
2013,03,23,14,18,5.90
2013,03,23,14,19,6.00
2013,03,23,14,20,5.90
2013,03,23,14,21,5.90
2013,03,23,14,22,5.80
2013,03,23,14,23,5.80
2013,03,23,14,24,5.80
2013,03,23,14,25,5.80
2013,03,23,14,26,5.70
2013,03,23,14,27,5.70
2013,03,23,14,28,5.60
2013,03,23,14,29,5.60
2013,03,23,14,30,5.60
2013,03,23,14,31,5.70
2013,03,23,14,32,5.70
2013,03,23,14,33,5.70
2013,03,23,14,34,5.70
2013,03,23,14,35,5.70
2013,03,23,14,36,5.70
2013,03,23,14,37,5.70
2013,03,23,14,38,5.80
2013,03,23,14,39,5.90
2013,03,23,14,40,6.00
2013,03,23,14,41,6.10
2013,03,23,14,42,6.20
2013,03,23,14,43,6.30
2013,03,23,14,44,6.40
2013,03,23,14,45,6.30
2013,03,23,14,46,6.40
2013,03,23,14,47,6.40
2013,03,23,14,48,6.30
2013,03,23,14,49,6.30
2013,03,23,14,50,6.40
2013,03,23,14,51,6.40
2013,03,23,14,52,6.40
2013,03,23,14,53,6.60
2013,03,23,14,54,6.70
2013,03,23,14,55,6.70
2013,03,23,14,56,6.70
2013,03,23,14,57,6.80
2013,03,23,14,58,6.80
2013,03,23,14,59,6.80
2013,03,23,15,00,6.70
2013,03,23,15,01,6.70
2013,03,23,15,02,6.70
2013,03,23,15,03,6.70
2013,03,23,15,04,6.70
2013,03,23,15,05,6.70
2013,03,23,15,06,6.70
2013,03,23,15,07,6.60
2013,03,23,15,08,6.50
2013,03,23,15,09,6.40
2013,03,23,15,10,6.20
2013,03,23,15,11,6.10
2013,03,23,15,12,6.10
2013,03,23,15,13,6.10
2013,03,23,15,14,6.10
2013,03,23,15,15,6.10
2013,03,23,15,16,6.10
2013,03,23,15,17,6.20
2013,03,23,15,18,6.20
2013,03,23,15,19,6.20
2013,03,23,15,20,6.20
2013,03,23,15,21,6.20
2013,03,23,15,22,6.10
2013,03,23,15,23,6.10
2013,03,23,15,24,6.10
2013,03,23,15,25,6.20
2013,03,23,15,26,6.20
2013,03,23,15,27,6.20
2013,03,23,15,28,6.20
2013,03,23,15,29,6.20
2013,03,23,15,30,6.20
2013,03,23,15,31,6.20
2013,03,23,15,32,6.20
2013,03,23,15,33,6.20
2013,03,23,15,34,6.10
2013,03,23,15,35,6.00
2013,03,23,15,36,6.00
2013,03,23,15,37,5.90
2013,03,23,15,38,5.90
2013,03,23,15,39,6.00
2013,03,23,15,40,6.00
2013,03,23,15,41,6.00
2013,03,23,15,42,6.00
2013,03,23,15,43,6.00
2013,03,23,15,44,6.00
2013,03,23,15,45,5.90
2013,03,23,15,46,5.90
2013,03,23,15,47,5.90
2013,03,23,15,48,5.90
2013,03,23,15,49,6.00
2013,03,23,15,50,6.00
2013,03,23,15,51,6.00
2013,03,23,15,52,6.10
2013,03,23,15,53,6.10
2013,03,23,15,54,6.10
2013,03,23,15,55,6.10
2013,03,23,15,56,6.10
2013,03,23,15,57,6.20
2013,03,23,15,58,6.10
2013,03,23,15,59,6.10
2013,03,23,16,00,6.10
2013,03,23,16,01,6.10
2013,03,23,16,02,6.00
2013,03,23,16,03,6.00
2013,03,23,16,04,6.00
2013,03,23,16,05,5.90
2013,03,23,16,06,5.90
2013,03,23,16,07,6.00
2013,03,23,16,08,6.00
2013,03,23,16,09,6.00
2013,03,23,16,10,6.00
2013,03,23,16,11,6.00
2013,03,23,16,12,6.00
2013,03,23,16,13,6.00
2013,03,23,16,14,6.00
2013,03,23,16,15,6.00
2013,03,23,16,16,6.00
2013,03,23,16,17,6.00
2013,03,23,16,18,6.00
2013,03,23,16,19,6.00
2013,03,23,16,20,6.00
2013,03,23,16,21,6.10
2013,03,23,16,22,6.10
2013,03,23,16,23,6.10
2013,03,23,16,24,6.10
2013,03,23,16,25,6.10
2013,03,23,16,26,6.10
2013,03,23,16,27,6.10
2013,03,23,16,28,6.10
2013,03,23,16,29,6.10
2013,03,23,16,30,6.10
2013,03,23,16,31,6.10
2013,03,23,16,32,6.20
2013,03,23,16,33,6.20
2013,03,23,16,34,6.20
2013,03,23,16,35,6.30
2013,03,23,16,36,6.20
2013,03,23,16,37,6.20
2013,03,23,16,38,6.20
2013,03,23,16,39,6.20
2013,03,23,16,40,6.20
2013,03,23,16,41,6.20
2013,03,23,16,42,6.20
2013,03,23,16,43,6.10
2013,03,23,16,44,6.00
2013,03,23,16,45,6.00
2013,03,23,16,46,6.00
2013,03,23,16,47,6.00
2013,03,23,16,48,6.00
2013,03,23,16,49,6.00
2013,03,23,16,50,6.00
2013,03,23,16,51,6.00
2013,03,23,16,52,6.00
2013,03,23,16,53,6.00
2013,03,23,16,54,6.00
2013,03,23,16,55,6.00
2013,03,23,16,56,6.00
2013,03,23,16,57,5.90
2013,03,23,16,58,5.90
2013,03,23,16,59,5.90
2013,03,23,17,00,6.00
2013,03,23,17,01,6.00
2013,03,23,17,02,6.00
2013,03,23,17,03,6.00
2013,03,23,17,04,6.10
2013,03,23,17,05,6.10
2013,03,23,17,06,6.10
2013,03,23,17,07,6.00
2013,03,23,17,08,6.00
2013,03,23,17,09,6.00
2013,03,23,17,10,6.00
2013,03,23,17,11,6.00
2013,03,23,17,12,6.10
2013,03,23,17,13,6.10
2013,03,23,17,14,6.10
2013,03,23,17,15,6.10
2013,03,23,17,16,6.20
2013,03,23,17,17,6.10
2013,03,23,17,18,6.10
2013,03,23,17,19,6.10
2013,03,23,17,20,6.10
2013,03,23,17,21,6.10
2013,03,23,17,22,6.10
2013,03,23,17,23,6.10
2013,03,23,17,24,6.10
2013,03,23,17,25,6.10
2013,03,23,17,26,6.10
2013,03,23,17,27,6.10
2013,03,23,17,28,6.10
2013,03,23,17,29,6.10
2013,03,23,17,30,6.10
2013,03,23,17,31,6.10
2013,03,23,17,32,6.10
2013,03,23,17,33,6.20
2013,03,23,17,34,6.20
2013,03,23,17,35,6.20
2013,03,23,17,36,6.20
2013,03,23,17,37,6.20
2013,03,23,17,38,6.20
2013,03,23,17,39,6.20
2013,03,23,17,40,6.10
2013,03,23,17,41,6.10
2013,03,23,17,42,6.00
2013,03,23,17,43,6.00
2013,03,23,17,44,5.90
2013,03,23,17,45,5.90
2013,03,23,17,46,5.90
2013,03,23,17,47,5.90
2013,03,23,17,48,5.90
2013,03,23,17,49,5.90
2013,03,23,17,50,5.90
2013,03,23,17,51,5.90
2013,03,23,17,52,5.90
2013,03,23,17,53,5.80
2013,03,23,17,54,5.80
2013,03,23,17,55,5.80
2013,03,23,17,56,5.80
2013,03,23,17,57,5.70
2013,03,23,17,58,5.70
2013,03,23,17,59,5.70
2013,03,23,18,00,5.70
2013,03,23,18,01,5.70
2013,03,23,18,02,5.70
2013,03,23,18,03,5.70
2013,03,23,18,04,5.70
2013,03,23,18,05,5.70
2013,03,23,18,06,5.70
2013,03,23,18,07,5.70
2013,03,23,18,08,5.70
2013,03,23,18,09,5.70
2013,03,23,18,10,5.70
2013,03,23,18,11,5.70
2013,03,23,18,12,5.70
2013,03,23,18,13,5.70
2013,03,23,18,14,5.70
2013,03,23,18,15,5.70
2013,03,23,18,16,5.70
2013,03,23,18,17,5.70
2013,03,23,18,18,5.70
2013,03,23,18,19,5.70
